sat.trackr.live / text

‹ back to catalog

STARLINK-37574

NORAD 69464 · 2026-127X

PAYLOAD ACTIVE UNKNOWN

§ Identity

Operator
Country
US
Launch date
2026-06-08
Launch site
AFETR
Launch vehicle
Mass (kg)
RCS (m²)

Purposes: comms

External: N2YO · Heavens-Above · Gunter

§ Orbital elements

Epoch: 2026-09-20T00:09:01.539648Z

Period
93.85 min
Inclination
53.1582°
Eccentricity
0.0001041
Mean motion
15.34402941 rev/d
Perigee alt
462.0 km
Apogee alt
463.4 km
Semi-major
6,840.8 km
B*
5.5519e-4
RAAN
168.2135°
Arg perigee
86.1467°
Mean anomaly
273.9655°
Rev number
1,611

§ Raw data

STARLINK-375741 69464U 26127X   26263.00626782  .00018430  00000+0  55519-3 0  99902 69464  53.1582 168.2135 0001041  86.1467 273.9655 15.34402941 16118

JSON: /api/v1/satellites/69464 · /tle

For live sub-satellite position, see the globe view (requires WebGL).

§ Visibility from observer

Set your observer location to see the next 7 days of passes ≥ 10°. The values pass through the URL so the page stays shareable.

No JS? Fill the form by hand. The geolocation button needs JavaScript.